Aurora, IL

12:29 PM CST on November 17, 2017 (GMT -0600)
Aurora Municipal

Weather History for KARR - April, 2014

Change the Weather History Date:

Thursday, April 10, 2014

  Actual Average Record
Temperature  
Mean Temperature 51 °F 47 °F  
Max Temperature 66 °F 58 °F 83 °F (2011)
Min Temperature 36 °F 35 °F 22 °F (2012)
Degree Days  
Heating Degree Days 14 18  
Month to date heating degree days 212 200  
Since 1 July heating degree days 6869 6208  
Cooling Degree Days 0 0  
Month to date cooling degree days 0 0  
Year to date cooling degree days 0 0  
Growing Degree Days 2 (Base 50)    
Moisture  
Dew Point 35 °F    
Average Humidity 55    
Maximum Humidity 75    
Minimum Humidity 34    
Precipitation  
Precipitation T in 0.11 in 0.98 in (2013)
Month to date precipitation 0.84 1.04  
Year to date precipitation 3.41 6.36  
Sea Level Pressure  
Sea Level Pressure 29.80 in    
Wind  
Wind Speed 10 mph (WSW)    
Max Wind Speed 22 mph    
Max Gust Speed 28 mph    
Visibility 10 miles    
Events      
T = Trace of Precipitation, MM = Missing Value Source: NWS Daily Summary

Daily Weather History Graph

Daily Weather History Graph

Search for Another Location

Airport or City:

Trip Planner

Search our weather history database for the weather conditions in past years. The results will help you decide how hot, cold, wet, or windy it might be!

Date:

Astronomy

Apr. 10, 2014 Rise Set
Actual Time 6:21 AM CDT 7:29 PM CDT
Civil Twilight 5:53 AM CDT 7:57 PM CDT
Nautical Twilight 5:19 AM CDT 8:32 PM CDT
Astronomical Twilight 4:43 AM CDT 9:07 PM CDT
Moon 3:09 PM CDT (4/10) 3:48 AM CDT (4/10)
Length of Visible Light 14h 04m
Length of Day
13h 07m
Waxing Gibbous, 80% of the Moon is Illuminated
Apr 10
Waxing Gibbous
Apr 15
Full
Apr 22
Last Quarter
Apr 29
New
May 6
First Quarter

Hourly Weather History & Observations

Time (CDT) Temp. Windchill Dew Point Humidity Pressure Visibility Wind Dir Wind Speed Gust Speed Precip Events Conditions
12:52 AM 46.9 °F - 34.0 °F 61% 29.84 in 10.0 mi South 10.4 mph - N/A   Clear
1:52 AM 46.9 °F - 35.1 °F 63% 29.82 in 10.0 mi South 11.5 mph - N/A   Clear
2:52 AM 46.9 °F - 35.1 °F 63% 29.78 in 10.0 mi South 11.5 mph - N/A   Clear
3:52 AM 46.9 °F - 35.1 °F 63% 29.75 in 10.0 mi South 11.5 mph - N/A   Clear
4:52 AM 50.0 °F - 34.0 °F 54% 29.72 in 10.0 mi South 13.8 mph - N/A   Clear
5:52 AM 51.1 °F - 35.1 °F 54% 29.71 in 10.0 mi SSW 16.1 mph 25.3 mph N/A   Clear
6:52 AM 51.1 °F - 36.0 °F 56% 29.70 in 10.0 mi South 13.8 mph - N/A   Clear
7:52 AM 53.1 °F - 37.0 °F 55% 29.72 in 10.0 mi SSW 11.5 mph - N/A   Mostly Cloudy
9:52 AM 59.0 °F - 39.0 °F 48% 29.71 in 10.0 mi SW 16.1 mph 23.0 mph N/A   Clear
10:52 AM 59.0 °F - 39.9 °F 49% 29.74 in 10.0 mi SW 12.7 mph - N/A   Clear
11:52 AM 60.1 °F - 39.9 °F 47% 29.77 in 8.0 mi West 16.1 mph - N/A   Clear
12:52 PM 62.1 °F - 39.9 °F 44% 29.73 in 9.0 mi WNW 10.4 mph - 0.00 in   Clear
1:52 PM 64.0 °F - 39.0 °F 40% 29.78 in 9.0 mi West 11.5 mph - N/A   Clear
2:52 PM 64.9 °F - 37.9 °F 37% 29.78 in 10.0 mi NW 12.7 mph - N/A   Partly Cloudy
3:52 PM 64.9 °F - 36.0 °F 34% 29.78 in 10.0 mi WNW 10.4 mph - N/A   Clear
4:52 PM 64.0 °F - 37.0 °F 37% 29.81 in 10.0 mi WNW 9.2 mph - N/A   Clear
5:52 PM 61.0 °F - 34.0 °F 36% 29.83 in 10.0 mi West 10.4 mph - N/A   Clear
6:52 PM 57.0 °F - 34.0 °F 42% 29.85 in 10.0 mi West 6.9 mph - N/A   Clear
7:52 PM 51.1 °F - 33.1 °F 50% 29.88 in 10.0 mi WNW 10.4 mph - N/A   Clear
8:52 PM 44.1 °F 42.5 °F 30.9 °F 60% 29.91 in 10.0 mi NW 3.5 mph - N/A   Clear
9:52 PM 41.0 °F - 30.0 °F 65% 29.93 in 10.0 mi Calm Calm - N/A   Clear
10:52 PM 39.0 °F - 28.9 °F 67% 29.94 in 10.0 mi Calm Calm - N/A   Clear
11:52 PM 36.0 °F 30.3 °F 28.9 °F 76% 29.96 in 10.0 mi West 6.9 mph - N/A   Clear